Portada
METAR-TAF:

METAR-TAF

Aeropuertos :

Aeropuerto Internacional Josefa Camejo

Paraguaná, Venezuela

latitud: 11-47N, longitud: 070-09W, altitud: 23 m

METAR: falta

Hora: 18:49 (22:49 UTC)

Pronóstico

El informe se hizo hace 6 horas y 49 minutos, a las 16:00 UTC
Pronóstico válido del 22 a las 18 UTC al 23 a las 18 UTC
Viento 21 kt del este
Visibilidad 10 km o más
Escasas nubes a una altura de 3000 ft
Evolucionando progresivamente
del 22 a las 18 UTC al 22 a las 22 UTC
Viento 15 kt del oeste
Visibilidad 10 km o más
Escasas nubes a una altura de 1600 ft

TAF: SVJC 221600Z 2218/2318 09021KT 9999 FEW030 TX33/19Z TN26/09Z BECMG 2218/2222 27015KT 9999 FEW016

Observaciones y pronósticos meteorológicos de más de 4000 aeropuertos (mensajes METAR y TAF).

Los puntos amarillos y rojos representan las estaciones disponibles.

Ponga el ratón en el punto deseado para ver el nombre de la estación.

Haga clic para ver las observaciones y los pronósticos meteorológicos.

Para cambiar el mapa : haga clic en los botones verdes con una cruz de color negro para hacer un zoom, en el botón verde con un guión para alejar o en las flechas verdes para mapas adyacentes.


METAR-TAF: